When you browse on this site, cookies collect data to enhance your experience and personalize the content and advertising you see.
Visit our Privacy Policy to learn more. By continuing to use the site, you agree to this use of cookies and data.
  • In Romania
  • List of Countries
  • For 7 days
  • Water Temperature
  • Satellite Maps
  • Weather Map
  • Weather Widgets
  • user-avatar
    Login

    Hourly Weather Konyshkovo

    Today, 25 April, Thursday

    Time Temperature Precipitation Wind Pressure Humidity
    00:00 +12°C° 0 mm 1 mps 748 mmHg 64%
    01:00 +11°C° 0 mm 0 mps 748 mmHg 65%
    02:00 +10°C° 0 mm 0 mps 748 mmHg 67%
    03:00 +10°C° 0 mm 0 mps 748 mmHg 68%
    04:00 +10°C° 0 mm 0 mps 748 mmHg 69%
    05:00 +10°C° 0 mm 0 mps 748 mmHg 70%
    06:00 +12°C° 0 mm 0 mps 748 mmHg 63%
    07:00 +14°C° 0 mm 0 mps 748 mmHg 56%
    08:00 +17°C° 0 mm 0 mps 748 mmHg 50%
    09:00 +19°C° 0 mm 0 mps 748 mmHg 45%
    10:00 +21°C° 0 mm 0 mps 748 mmHg 39%
    11:00 +23°C° 0 mm 0 mps 747 mmHg 34%
    12:00 +22°C° 0 mm 0 mps 747 mmHg 33%
    13:00 +22°C° 0 mm 0 mps 747 mmHg 33%
    14:00 +24°C° 0 mm 1 mps 747 mmHg 32%
    15:00 +21°C° 0 mm 0 mps 746 mmHg 36%
    16:00 +20°C° 0 mm 0 mps 746 mmHg 41%
    17:00 +18°C° 0 mm 0 mps 746 mmHg 45%
    18:00 +17°C° 0 mm 0 mps 746 mmHg 47%
    19:00 +17°C° 0 mm 0 mps 745 mmHg 49%
    20:00 +16°C° 0 mm 0 mps 745 mmHg 51%
    21:00 +15°C° 0 mm 0 mps 745 mmHg 52%
    22:00 +15°C° 0 mm 0 mps 745 mmHg 53%
    23:00 +14°C° 0 mm 0 mps 745 mmHg 55%

    Tomorrow, 26 April, Friday

    Time Temperature Precipitation Wind Pressure Humidity
    00:00 +14°C° 0 mm 0 mps 745 mmHg 56%
    01:00 +14°C° 0 mm 0 mps 745 mmHg 57%
    02:00 +13°C° 0 mm 0 mps 745 mmHg 58%
    03:00 +13°C° 0 mm 0 mps 745 mmHg 60%
    04:00 +12°C° 0 mm 0 mps 745 mmHg 62%
    05:00 +12°C° 0 mm 0 mps 745 mmHg 64%
    06:00 +14°C° 0 mm 0 mps 745 mmHg 59%
    07:00 +15°C° 0 mm 0 mps 745 mmHg 55%
    08:00 +17°C° 0 mm 0 mps 745 mmHg 50%
    09:00 +18°C° 0 mm 0 mps 745 mmHg 47%
    10:00 +19°C° 0 mm 0 mps 744 mmHg 44%
    11:00 +22°C° 0 mm 1 mps 744 mmHg 40%
    12:00 +22°C° 0 mm 1 mps 744 mmHg 37%
    13:00 +22°C° 0 mm 1 mps 744 mmHg 34%
    14:00 +23°C° 0 mm 1 mps 743 mmHg 31%
    15:00 +22°C° 0 mm 1 mps 743 mmHg 35%
    16:00 +22°C° 0 mm 1 mps 743 mmHg 38%
    17:00 +21°C° 0 mm 1 mps 742 mmHg 42%
    18:00 +20°C° 0 mm 1 mps 742 mmHg 46%
    19:00 +18°C° 0 mm 1 mps 742 mmHg 50%
    20:00 +15°C° 0 mm 1 mps 742 mmHg 55%
    21:00 +15°C° 0 mm 2 mps 742 mmHg 57%
    22:00 +14°C° 0 mm 2 mps 741 mmHg 59%
    23:00 +14°C° 0 mm 2 mps 741 mmHg 61%

    Day after tomorrow, 27 April, Saturday

    Time Temperature Precipitation Wind Pressure Humidity
    00:00 +13°C° 0.4 mm 2 mps 741 mmHg 66%
    01:00 +13°C° 0.4 mm 2 mps 740 mmHg 71%
    02:00 +12°C° 0.4 mm 1 mps 740 mmHg 76%
    03:00 +12°C° 0.5 mm 1 mps 740 mmHg 80%
    04:00 +12°C° 0.5 mm 1 mps 739 mmHg 83%
    05:00 +11°C° 0.5 mm 1 mps 739 mmHg 87%
    06:00 +12°C° 0.2 mm 1 mps 739 mmHg 83%
    07:00 +14°C° 0.2 mm 2 mps 739 mmHg 79%
    08:00 +15°C° 0.2 mm 2 mps 738 mmHg 74%
    09:00 +17°C° 0 mm 2 mps 738 mmHg 65%
    10:00 +18°C° 0 mm 2 mps 738 mmHg 56%
    11:00 +20°C° 0 mm 2 mps 738 mmHg 46%
    12:00 +21°C° 0 mm 1 mps 737 mmHg 46%
    13:00 +21°C° 0 mm 1 mps 737 mmHg 45%
    14:00 +21°C° 0 mm 1 mps 736 mmHg 45%
    15:00 +21°C° 0 mm 1 mps 736 mmHg 47%
    16:00 +20°C° 0 mm 1 mps 736 mmHg 49%
    17:00 +20°C° 0 mm 1 mps 736 mmHg 52%
    18:00 +19°C° 0 mm 1 mps 736 mmHg 55%
    19:00 +18°C° 0 mm 1 mps 736 mmHg 58%
    20:00 +15°C° 0 mm 1 mps 736 mmHg 61%
    21:00 +14°C° 0 mm 1 mps 736 mmHg 66%
    22:00 +13°C° 0 mm 1 mps 736 mmHg 71%
    23:00 +12°C° 0 mm 1 mps 736 mmHg 76%

    28 April, Sunday

    Time Temperature Precipitation Wind Pressure Humidity
    00:00 +10°C° 0 mm 2 mps 736 mmHg 78%
    01:00 +9°C° 0 mm 3 mps 737 mmHg 79%
    02:00 +8°C° 0 mm 4 mps 737 mmHg 80%
    03:00 +7°C° 0 mm 4 mps 737 mmHg 79%
    04:00 +7°C° 0 mm 4 mps 738 mmHg 77%
    05:00 +6°C° 0 mm 5 mps 738 mmHg 76%
    06:00 +6°C° 0 mm 5 mps 739 mmHg 71%
    07:00 +6°C° 0 mm 5 mps 740 mmHg 66%
    08:00 +6°C° 0 mm 5 mps 740 mmHg 61%
    09:00 +7°C° 0 mm 5 mps 741 mmHg 55%
    10:00 +8°C° 0 mm 5 mps 742 mmHg 49%
    11:00 +9°C° 0 mm 5 mps 742 mmHg 43%
    12:00 +9°C° 0 mm 5 mps 742 mmHg 42%
    13:00 +9°C° 0 mm 5 mps 743 mmHg 41%
    14:00 +9°C° 0 mm 5 mps 743 mmHg 40%
    15:00 +9°C° 0 mm 5 mps 743 mmHg 40%
    16:00 +8°C° 0 mm 5 mps 743 mmHg 39%
    17:00 +7°C° 0 mm 5 mps 744 mmHg 39%
    18:00 +6°C° 0 mm 4 mps 744 mmHg 43%
    19:00 +4°C° 0 mm 4 mps 745 mmHg 47%
    20:00 +3°C° 0 mm 3 mps 745 mmHg 51%
    21:00 +2°C° 0 mm 3 mps 746 mmHg 54%
    22:00 +1°C° 0 mm 3 mps 746 mmHg 57%
    23:00 +2°C° 0 mm 2 mps 747 mmHg 60%

    29 April, Monday

    Time Temperature Precipitation Wind Pressure Humidity
    00:00 +1°C° 0 mm 2 mps 747 mmHg 62%
    01:00 +1°C° 0 mm 2 mps 747 mmHg 65%
    02:00 -1°C° 0 mm 2 mps 747 mmHg 67%
    03:00 -1°C° 0 mm 2 mps 748 mmHg 68%
    04:00 -1°C° 0 mm 2 mps 748 mmHg 69%
    05:00 -2°C° 0 mm 2 mps 748 mmHg 70%
    06:00 +1°C° 0 mm 2 mps 748 mmHg 62%
    07:00 +3°C° 0 mm 2 mps 748 mmHg 55%
    08:00 +4°C° 0 mm 3 mps 749 mmHg 47%
    09:00 +6°C° 0 mm 2 mps 749 mmHg 43%
    10:00 +7°C° 0 mm 2 mps 749 mmHg 39%
    11:00 +8°C° 0 mm 2 mps 748 mmHg 35%
    12:00 +8°C° 0 mm 2 mps 748 mmHg 33%
    13:00 +9°C° 0 mm 2 mps 748 mmHg 32%
    14:00 +10°C° 0 mm 2 mps 748 mmHg 30%
    15:00 +9°C° 0 mm 2 mps 747 mmHg 31%
    16:00 +9°C° 0 mm 3 mps 747 mmHg 32%
    17:00 +9°C° 0 mm 3 mps 747 mmHg 32%
    18:00 +7°C° 0 mm 2 mps 747 mmHg 38%
    19:00 +5°C° 0 mm 2 mps 748 mmHg 45%
    20:00 +5°C° 0 mm 1 mps 748 mmHg 51%
    21:00 +4°C° 0 mm 1 mps 748 mmHg 53%
    22:00 +3°C° 0 mm 1 mps 748 mmHg 56%
    23:00 +2°C° 0 mm 1 mps 749 mmHg 59%

    30 April, Tuesday

    Time Temperature Precipitation Wind Pressure Humidity
    00:00 +1°C° 0 mm 0 mps 749 mmHg 60%
    01:00 0°C° 0 mm 0 mps 749 mmHg 62%
    02:00 0°C° 0 mm 0 mps 749 mmHg 64%
    03:00 0°C° 0 mm 0 mps 749 mmHg 63%
    04:00 0°C° 0 mm 0 mps 749 mmHg 62%
    05:00 0°C° 0 mm 0 mps 749 mmHg 61%
    06:00 +3°C° 0 mm 0 mps 749 mmHg 54%
    07:00 +6°C° 0 mm 0 mps 749 mmHg 46%
    08:00 +8°C° 0 mm 0 mps 749 mmHg 39%
    09:00 +10°C° 0 mm 0 mps 749 mmHg 36%
    10:00 +11°C° 0 mm 0 mps 749 mmHg 33%
    11:00 +13°C° 0 mm 0 mps 749 mmHg 30%
    12:00 +13°C° 0 mm 0 mps 748 mmHg 29%
    13:00 +14°C° 0 mm 0 mps 748 mmHg 29%
    14:00 +14°C° 0 mm 0 mps 747 mmHg 28%
    15:00 +14°C° 0 mm 1 mps 746 mmHg 29%
    16:00 +13°C° 0 mm 1 mps 746 mmHg 30%
    17:00 +13°C° 0 mm 1 mps 745 mmHg 31%
    18:00 +11°C° 0 mm 1 mps 745 mmHg 37%
    19:00 +9°C° 0 mm 1 mps 745 mmHg 43%
    20:00 +7°C° 0 mm 1 mps 744 mmHg 48%
    21:00 +6°C° 0 mm 2 mps 744 mmHg 51%
    22:00 +5°C° 0 mm 2 mps 744 mmHg 53%
    23:00 +4°C° 0 mm 2 mps 744 mmHg 56%
    Show more